星链-35737(STARLINK-35737)

导读 | 豆包AI

STARLINK-35737是美国SpaceX星链星座的卫星,于2025年10月28日发射升空,属于星链互联网星座扩容任务的一部分。星链项目旨在为全球提供低延迟、高速率的卫星互联网服务,该卫星入轨后,将进一步扩充星链星座的规模,提升全球尤其是偏远地区网络覆盖能力,服务军民领域各类网络需求。

Basic Information
目录编号:
66219
目录名称:
STARLINK-35737
国际标识:
2025-244P
轨道中心:
EARTH
卫星名称:
星链-35737
卫星全名:
星链-35737(STARLINK-35737)
卫星状态:
在轨 (已飞行209 天)
发射日期:
2025-10-28 UTC
国别 :
美国 (US)
星等 :
--
Orbit Information
数据来源 国际轨道数据 AOE轨道数据
星历时间 2026-05-24T23:57:25+0800
19小时前
查看轨道信息
2026-05-24T05:00:00+0800
1天前
查看轨道信息
半长轴 6853.359km 6853.363km
偏心率 0.0001294 0.0001373
轨道倾角 53.159° 53.157°
近地点辐角 80.305° 78.535°
升交点赤经 236.873° 240.542°
平近点角 279.810° 247.986°
近地点 474.335km 474.285km
远地点 476.109km 476.167km
周期 94.105分钟 94.106分钟
每日圈数 15.301979 15.301965
Detailed Information
固有亮度:
5
最大亮度:
2.5
卫星平台:
Starlink V1.0
覆盖范围:
全球
运营商:
太空探索技术公司
运营商所在国:
美国
制造商(研发单位):
太空探索技术公司
制造商所在国:
美国
使用方式:
暂无
Satellite Introduction
Starlink 计划是 SpaceX 推出的全球卫星互联网项目,通过发射低轨道卫星,为全球尤其是偏远地区提供高速、低延迟的互联网服务。自 2019 年起,Starlink 已部署数千颗卫星,旨在缩小全球数字鸿沟,推动互联网普及。该项目还为军事、航空等行业提供通信支持,带来广泛经济效益。
2D Orbit Map
3D Orbit Map
Orbit Altitude Analysis Chart
Orbit Inclination Analysis Chart
Orbit Comprehensive Analysis Chart
View Comprehensive Chart